TimeCDT,TemperatureF,Dew PointF,Humidity,Sea Level PressureIn,VisibilityMPH,Wind Direction,Wind SpeedMPH,Gust SpeedMPH,PrecipitationIn,Events,Conditions,WindDirDegrees,DateUTC
12:52 AM,78.1,71.1,79,29.87,10.0,SSW,5.8,-,N/A,,Clear,210,2013-07-01 05:52:00
1:52 AM,78.1,71.1,79,29.86,10.0,SSW,4.6,-,N/A,,Clear,210,2013-07-01 06:52:00
2:52 AM,77.0,71.1,82,29.86,10.0,Calm,Calm,-,N/A,,Clear,0,2013-07-01 07:52:00
3:52 AM,75.0,70.0,84,29.85,10.0,Calm,Calm,-,N/A,,Clear,0,2013-07-01 08:52:00
4:52 AM,75.0,70.0,84,29.85,10.0,Calm,Calm,-,N/A,,Clear,0,2013-07-01 09:52:00
5:52 AM,73.0,69.1,87,29.85,10.0,Calm,Calm,-,N/A,,Clear,0,2013-07-01 10:52:00
6:52 AM,73.0,70.0,90,29.86,10.0,Calm,Calm,-,N/A,,Clear,0,2013-07-01 11:52:00
7:52 AM,78.1,73.0,84,29.88,10.0,East,3.5,-,N/A,,Clear,80,2013-07-01 12:52:00
8:52 AM,84.9,72.0,65,29.91,10.0,Calm,Calm,-,N/A,,Clear,0,2013-07-01 13:52:00
9:52 AM,89.1,64.9,45,29.92,10.0,West,4.6,-,N/A,,Clear,260,2013-07-01 14:52:00
10:52 AM,93.0,64.0,38,29.91,10.0,North,4.6,-,N/A,,Clear,350,2013-07-01 15:52:00
11:52 AM,93.0,64.0,38,29.91,10.0,North,6.9,-,N/A,,Clear,10,2013-07-01 16:52:00
12:52 PM,93.0,64.9,39,29.91,10.0,NNE,8.1,-,N/A,,Clear,20,2013-07-01 17:52:00
1:52 PM,93.0,64.9,39,29.90,10.0,North,8.1,-,N/A,,Clear,360,2013-07-01 18:52:00
2:52 PM,98.1,64.0,33,29.87,10.0,NE,5.8,-,N/A,,Clear,50,2013-07-01 19:52:00
3:52 PM,97.0,63.0,32,29.86,10.0,Variable,3.5,-,N/A,,Partly Cloudy,0,2013-07-01 20:52:00
4:52 PM,96.1,68.0,40,29.84,10.0,East,11.5,17.3,N/A,,Mostly Cloudy,100,2013-07-01 21:52:00
5:01 PM,87.8,71.6,58,29.84,9.0,NNE,27.6,34.5,0.00,Rain,Light Rain,30,2013-07-01 22:01:00
5:12 PM,80.6,73.4,79,29.86,2.5,NE,24.2,35.7,0.04,Rain,Heavy Rain,50,2013-07-01 22:12:00
5:21 PM,77.0,69.8,78,29.88,1.0,North,25.3,43.7,0.25,Rain,Heavy Rain,350,2013-07-01 22:21:00
5:34 PM,77.0,71.6,83,29.89,1.0,SW,8.1,-,0.52,Rain,Heavy Rain,230,2013-07-01 22:34:00
5:47 PM,78.8,66.2,65,29.87,4.0,SW,10.4,-,0.64,Rain,Light Rain,220,2013-07-01 22:47:00
5:52 PM,79.0,66.9,66,29.86,10.0,SW,11.5,-,0.64,Rain,Light Rain,220,2013-07-01 22:52:00
6:52 PM,82.9,71.1,67,29.87,10.0,Calm,Calm,-,0.00,,Clear,0,2013-07-01 23:52:00
7:52 PM,82.9,73.0,72,29.88,10.0,ENE,10.4,-,N/A,,Overcast,60,2013-07-02 00:52:00
8:52 PM,80.1,73.9,81,29.89,10.0,East,6.9,-,N/A,,Clear,100,2013-07-02 01:52:00
9:52 PM,78.1,73.0,84,29.91,10.0,SSE,8.1,-,0.01,,Clear,160,2013-07-02 02:52:00
10:52 PM,77.0,72.0,84,29.91,10.0,SE,4.6,-,N/A,,Clear,140,2013-07-02 03:52:00
11:52 PM,75.9,72.0,87,29.94,10.0,Calm,Calm,-,N/A,,Clear,0,2013-07-02 04:52:00